www.pogodaiklimat.ru

Погода и климат >> Архив погоды >> Казахстан >> Форт-Шевченко


ПОГОДА в Форте-Шевченко

  • Прогноз погоды в Форте-Шевченко
  • Монитор погоды в Форте-Шевченко
  • Климат города

АРХИВ ПОГОДЫ в Форте-Шевченко

Время (UTC), дата Ветер
(напр.,м/с)
 
Видим.   Явления Облачность Т
(С)
Тd
(С)
f
(%)
Тe
(С)
Тes
(С)
Комфортность P
(гПа)
Po
(гПа)
Тmin
(С)
Tmax
(С)
R
(мм)
R24
(мм)
S
(см)
18 17.09 З 4 10 км 8/0
[Ac trans]
+20.7 +17.6 82 +25 +25 комфорт 1015.1 1017.9 +22.6
21 17.09 С 3 10 км 8/0
[Ac trans]
+19.7 +15.7 78 +22 +22 комфорт 1015.4 1018.2
00 18.09 СЗ 2 10 км 6/0
[Ac trans]
+19.6 +15.9 79 +22 +22 комфорт 1015.8 1018.6
03 18.09 З 7 10 км 6/0
[Ac trans]
+20.1 +12.1 60 +21 +21 комфорт 1016.5 1019.3
06 18.09 З 9 10 км 4/0
[Ac trans]
+19.4 +12.1 63 +20 +20 1017.7 1020.5 +19.3
09 18.09 З 7 10 км 4/0
[Ac trans]
+19.4 +11.9 62 +20 +22 1017.7 1020.5
12 18.09 З 9 10 км 5/0
[Ci sp]
+19.9 +11.8 60 +21 +21 комфорт 1017.3 1020.1
15 18.09 З 9 10 км ясно +20.4 +11.1 55 +22 +22 комфорт 1017.1 1019.9 +20.8
18 18.09 СЗ 6 10 км ясно +20.0 +9.0 49 +21 +21 комфорт 1018.5 1021.3 +20.8
21 18.09 СЗ 6 10 км ясно +19.3 +8.8 51 +20 +20 1018.6 1021.4
00 19.09 СЗ 6 10 км ясно +18.3 +7.7 50 +18 +18 1018.4 1021.2
03 19.09 З 7 10 км 8/0
[Ac trans]
+18.3 +7.7 50 +18 +18 1018.6 1021.4
06 19.09 З 7 10 км 8/0
[Ac trans]
+19.4 +10.5 56 +20 +21 1019.5 1022.3 +17.9
09 19.09 З 4 10 км 3/0
[Ac trans]
+20.8 +11.2 54 +23 +29 комфорт 1018.5 1021.3
12 19.09 З 4 10 км ясно +20.9 +12.4 58 +23 +26 комфорт 1017.4 1020.2
15 19.09 З 4 10 км 3/0
[Ac trans]
+20.1 +14.4 70 +22 +22 комфорт 1016.5 1019.3 +21.4
18 19.09 З 6 10 км 3/0
[Ac trans]
+20.4 +16.3 77 +23 +23 комфорт 1016.9 1019.7 +21.4
21 19.09 СЗ 4 10 км 3/0
[Ac trans]
+19.0 +14.7 76 +20 +20 1017.4 1020.2
00 20.09 С 6 10 км 3/0
[Ac trans]
+18.4 +11.4 64 +18 +18 1017.7 1020.5
03 20.09 СЗ 7 10 км ясно +18.1 +9.2 56 +17 +17 1018.8 1021.6
06 20.09 СЗ 7 10 км ясно +20.2 +9.0 48 +21 +23 комфорт 1020.1 1022.9 +17.8
09 20.09 СЗ 6 10 км 6/0
[]
+20.9 +11.3 54 +23 +26 комфорт 1019.9 1022.7
12 20.09 З 7 10 км ясно +20.7 +12.2 58 +23 +24 комфорт 1019.7 1022.5
15 20.09 ЮЗ 5 10 км ясно +19.9 +14.4 71 +22 +22 комфорт 1018.8 1021.6 +21.2
18 20.09 Ю 4 10 км ясно +19.2 +14.4 74 +21 +21 комфорт 1019.2 1022.0 +21.2
21 20.09 ЮВ 3 10 км ясно +18.4 +14.6 79 +19 +19 1018.5 1021.3
00 21.09 Ю 2 10 км ясно +19.1 +14.9 77 +21 +21 комфорт 1018.4 1021.2
03 21.09 Ю 2 10 км ясно +18.8 +15.4 81 +20 +21 1018.3 1021.1
06 21.09 Ю 4 10 км 4/0
[Ci sp]
+21.2 +18.0 82 +25 +29 комфорт 1018.9 1021.7 +18.2
09 21.09 ЮЗ 3 10 км 6/0
[Ci sp]
+21.9 +18.6 82 +27 +35 душно 1018.6 1021.3
12 21.09 ЮВ 4 10 км 8/0
[Ci sp]
+21.6 +18.3 82 +26 +29 душно 1018.1 1020.9
15 21.09 Ю 3 10 км 3/0
[Ci sp]
+20.6 +17.7 83 +25 +25 комфорт 1017.7 1020.5 +22.0
18 21.09 ЮВ 1 10 км ясно +18.9 +15.3 80 +21 +21 комфорт 1018.3 1021.1 +22.0
21 21.09 Ю 2 10 км ясно +17.8 +14.5 81 +18 +18 1018.2 1021.0
00 22.09 ЮВ 2 10 км ясно +17.3 +13.8 80 +18 +18 1018.4 1021.2
03 22.09 Ю 1 10 км 6/0
[Ci sp]
+17.2 +13.8 80 +18 +18 1018.4 1021.2
06 22.09 С 2 10 км 3/0
[Ci sp]
+20.6 +17.0 80 +25 +30 комфорт 1019.8 1022.6 +17.0
09 22.09 В 4 10 км ясно +24.8 +12.7 47 +27 +34 жарко 1019.9 1022.6
12 22.09 СВ 7 10 км ясно +23.5 +14.6 57 +26 +27 жарко 1019.4 1022.1
15 22.09 В 7 10 км ясно +20.1 +13.1 64 +22 +22 комфорт 1019.5 1022.3 +25.0
18 22.09 В 7 10 км ясно +19.2 +11.5 61 +20 +20 1019.8 1022.6 +25.0
21 22.09 В 5 10 км ясно +18.3 +9.8 58 +18 +18 1019.7 1022.5
00 23.09 ЮВ 4 10 км ясно +18.6 +5.3 42 +19 +19 1019.1 1022.0
03 23.09 В 5 10 км 1/0
[Ci sp]
+18.7 +5.6 42 +19 +19 1019.3 1022.1
06 23.09 ЮВ 2 10 км 3/0
[Ci sp]
+24.2 +5.5 30 +24 +30 комфорт 1019.4 1022.1 +18.0
09 23.09 З 2 10 км 3/0
[Ci sp]
+23.0 +12.7 52 +26 +36 жарко 1018.9 1021.8
12 23.09 З 1 10 км 4/0
[Ci sp]
+23.3 +13.5 54 +27 +31 душно 1018.5 1021.2
15 23.09 В 1 10 км 3/0
[Ci sp]
+22.2 +12.9 56 +25 +25 комфорт 1017.8 1020.6 +24.3
18 23.09 В 1 10 км ясно +21.0 +8.0 43 +23 +23 комфорт 1017.8 1020.6 +24.3
21 23.09 В 1 10 км ясно +21.1 +9.0 46 +22 +22 комфорт 1016.4 1019.5
00 24.09 ЮВ 2 10 км ясно +19.9 +4.3 36 +21 +21 комфорт 1016.3 1019.1
03 24.09 ЮВ 3 10 км 3/0
[Ci sp]
+17.0 +12.1 73 +17 +17 1017.0 1019.8
06 24.09 Ю 3 10 км 6/0
[Ac trans]
+21.0 +16.7 76 +25 +28 комфорт 1018.1 1020.9 +16.8
09 24.09 Ю 4 10 км 6/0
[Ac trans]
+22.3 +18.4 79 +28 +32 душно 1018.2 1020.9
12 24.09 Ю 3 10 км 4/0
[Ac trans]
+22.2 +18.4 79 +27 +30 душно 1018.0 1020.7

 

Местоположение метеостанции Форт-Шевченко (Мангистауская область, Казахстан): широта 44.55 долгота 50.25 высота над уровнем моря -25 м.

В архиве по умолчанию представлена погода в Форте-Шевченко за последнюю неделю. Архивные данные за месяц целиком и за предыдущие месяцы, начиная с января 2011 года, Вы можете получить, выбрав интересующий диапазон дат из раскрывающегося списка и нажав кнопку "Ввод!".


*Определитесь, кто Вы:
робот инопланетянин человек

Внимание! Время в таблицах - всемирное. Для получения местного времени необходимо прибавить поправку, которая в Форте-Шевченко равна 5 ч.

Смотрите также архив погоды в соседних городах и на ближайших метеорологических станциях:

Погода на Кулалы Острове (Мангистауская область, Казахстан) (54 км)
Погода в Актау (Мангистауская область, Казахстан) (127 км)
Погода в Кызане (Мангистауская область, Казахстан) (138 км)
Погода в Тущыбеке (Мангистауская область, Казахстан) (142 км)
Погода в Жетыбае (Мангистауская область, Казахстан) (183 км)
Погода на Острове Тюлений (Дагестан, Россия) (220 км)
Погода в Зеленге (Астраханская область, Россия) (222 км)
Погода в Ганюшкино (Атырауская область, Казахстан) (240 км)
Погода в Лагани (Калмыкия, Россия) (247 км)
Погода в Жанаозене (Мангистауская область, Казахстан) (247 км)

Пояснения к столбцам:

Ветер - указаны скорость ветра в м/с - средняя за 10 мин, порывы в срок и между сроками (в фигурных скобках) и направление, откуда дует ветер: С - северный, СВ - северо-восточный, В - восточный, ЮВ - юго-восточный, Ю - южный, ЮЗ - юго-западный, З - западный, СЗ - северо-западный.
Видимость - горизонтальная дальность видимости в метрах или километрах. При видимости от 1 до 10 км при отсутствии осадков обычно наблюдается дымка, при ухудшении видимости до 1 км и менее - туман. В сухую погоду видимость может ухудшаться дымом, пылью или мглою.
Явления - указаны атмосферные явления, наблюдавшиеся в срок или в последний час перед сроком; фигурными скобками обозначены явления, наблюдавшиеся между сроками (за 1-3 часа до срока); квадратными скобками обозначены град или гололедные отложения с указанием их диаметра в мм.
Облачность - указаны через наклонную черту общая и нижняя облачность в баллах и высота нижней границы облаков в метрах; квадратными скобками обозначены формы облаков: Ci - перистые, Cs - перисто-слоистые, Cc - перисто-кучевые, Ac - высококучевые, As - высокослоистые, Sc - слоисто-кучевые, Ns - слоисто-дождевые, Cu - кучевые, Cb - кучево-дождевые. Подробнее классификацию облаков см. в Атласе облаков (PDF).
T - Температура воздуха - температура, измеренная на высоте 2 м над землей.
Td - Температура точки росы - температура, при понижении до которой содержащийся в воздухе водяной пар достигнет насыщения.
f - Относительная влажность воздуха - влажноcть воздуха, измеренная на высоте 2 м над землей.
Te - Эффективная температура - температура, которую ощущает одетый по сезону человек в тени. Характеристика душности погоды. При расчете учитывается влияние влажности воздуха и скорости ветра на теплоощущения человека.
Tes - Эффективная температура на солнце - температура, которую ощущает человек, с поправкой на солнечный нагрев. Характеристика знойности погоды. Зависит от высоты солнца над горизонтом, облачности и скорости ветра. Ночью, в пасмурную погоду, а также при ветре 12 м/с и более поправка равна нулю.
P - Атмосферное давление - приведенное к уровню моря атмосферное давление.
Po - Атмосферное давление - измеренное на уровне метеостанции атмосферное давление.
Tmin - Минимальная температура - минимум температуры воздуха на высоте 2 м над землей.
Tmax - Максимальная температура - максимум температуры воздуха на высоте 2 м над землей.
R - Количество осадков - Количество выпавших осадков за период времени, мм. При наведении курсора мыши на число - период времени, за который выпало указанное количество осадков.
R24 - Количество осадков - Количество выпавших осадков за 24 часа, мм.
S - Снежный покров - Высота снежного покрова, см. При наведении курсора мыши на число - состояние снежного покрова и степень покрытия местности в баллах.